Regional Weather Roundup
Issued by NWS

Home | Current Version | Previous Version | Graphics & Text | Print | Product List | Glossary On
Versions: 1 2 3 4 5 6 7 8 9 10 11 12 13 14 15 16 17 18 19 20 21 22 23 24 25 26 27
000
ASUS45 KBOI 200010
RWRID

IDAHO REGIONAL WEATHER ROUNDUP
NATIONAL WEATHER SERVICE BOISE ID
500 PM MST SUN FEB 19 2017

NOTE: "FAIR" INDICATES FEW OR NO CLOUDS BELOW 12000 FEET
WITH NO SIGNIFICANT WEATHER AND/OR OBSTRUCTIONS TO VISIBILITY

IDZ012-014-200100-
SOUTHWEST IDAHO


CITY           SKY/WX    TMP DP  RH WIND       PRES   REMARKS
BOISE          CLOUDY    48  35  60 S3        29.70R
CALDWELL       PTSUNNY   48  38  68 NE7       29.69R
MOUNTAIN HOME  CLOUDY    47  37  67 NE7       29.69F
$$

IDZ016-017-200100-
SOUTHCENTRAL IDAHO


CITY           SKY/WX    TMP DP  RH WIND       PRES   REMARKS
BURLEY         PTSUNNY   48  31  51 SW7       29.72R
JEROME           N/A    N/A N/A N/A MISG      29.72R
TWIN FALLS     MOSUNNY   46  28  49 W12       29.72R
$$

IDZ019>023-200100-
SOUTHEAST IDAHO


CITY           SKY/WX    TMP DP  RH WIND       PRES   REMARKS
IDAHO FALLS    CLOUDY    35  32  88 SW17      29.73S WCI  25
POCATELLO      CLOUDY    41  33  73 SW14      29.75R
REXBURG        CLOUDY    34  31  88 SW18G33   29.70R WCI  23
$$

IDZ006-010-011-018-031-032-200100-
CENTRAL IDAHO MOUNTAINS


CITY           SKY/WX    TMP DP  RH WIND       PRES   REMARKS
MCCALL         PTSUNNY   34  26  72 SE10      29.63R WCI  26
HAILEY         PTSUNNY   39  27  60 NW3       29.72R
STANLEY          N/A     28  24  85 VRB5      29.69R WCI  23
SALMON         CLOUDY    39  27  60 SW14      29.60R WCI  31
CHALLIS        PTSUNNY   33  32  96 S5        29.66R WCI  29
$$

IDZ002-004-006-007-026-200100-
NORTHERN IDAHO


CITY           SKY/WX    TMP DP  RH WIND       PRES   REMARKS
LEWISTON       PTSUNNY   47  38  71 E7        29.60R
LOWELL           N/A     38  34  85 N3        29.62R
COEUR D`ALENE  CLOUDY    37  33  85 SW16      29.60R WCI  28
MULLAN PASS    LGT SNOW  26  26 100 VRB5      29.51R FOG     WCI  20
$$




USA.gov is the U.S. government's official web portal to all federal, state and local government web resources and services.